Location: *
(49.5667°N, 1.3667°W)
Time: 22:56:00
(UTC+00:00)

Cosmos 2219 - Pass Details

Date: 20 September 2019
Orbit: 834 x 860 km, 71.1° (Epoch: 15 October)

Event Time Altitude Azimuth Distance (km) Brightness Sun altitude
Rises 18:34:47 0° 172° (S) 3,421 6.2 -5.0°
Reaches altitude 10° 18:37:32 10° 161° (SSE) 2,490 5.4 -5.5°
Maximum altitude 18:42:20 28° 104° (ESE) 1,547 4.0 -6.3°
Drops below altitude 10° 18:47:09 10° 47° (NE) 2,502 5.3 -7.0°
Sets 18:49:54 0° 36° (NE) 3,441 6.1 -7.5°
